JES3001 SUMU-SABE

Flight info

Callsign JES3001
Flight time 0h 32m
Altitude 16000
Route DAGUS DCT UGIMI UGIMI8R
Aircraft A320/M-SDE3FGHIRWY/LB1

Departure

Time 2026-05-04 03:56
Airport Carrasco General Cesáreo L. Berisso International Airport (SUMU)

Arrival

Time 2026-05-04 04:29
Airport Aeroparque Jorge Newbery (SABE)
Time Latitude Longitude Altitude Speed Heading
2026-05-04 03:34 -34.83701 -56.01926 88 ft 0 kts 142°
2026-05-04 03:46 -34.83683 -56.01943 87 ft 4 kts 145°
2026-05-04 03:46 -34.83660 -56.01960 85 ft 4 kts 153°
2026-05-04 03:46 -34.83635 -56.01972 85 ft 4 kts 178°
2026-05-04 03:47 -34.83617 -56.01966 85 ft 1 kts 233°
2026-05-04 03:47 -34.83616 -56.01966 85 ft 0 kts 233°
2026-05-04 03:49 -34.83628 -56.01985 85 ft 5 kts 233°
2026-05-04 03:49 -34.83652 -56.02024 86 ft 7 kts 234°
2026-05-04 03:49 -34.83685 -56.02078 84 ft 9 kts 233°
2026-05-04 03:50 -34.83727 -56.02146 87 ft 11 kts 233°
2026-05-04 03:50 -34.83783 -56.02223 86 ft 13 kts 214°
2026-05-04 03:50 -34.83878 -56.02243 86 ft 15 kts 185°
2026-05-04 03:50 -34.83947 -56.02321 82 ft 16 kts 266°
2026-05-04 03:51 -34.83947 -56.02471 82 ft 19 kts 270°
2026-05-04 03:51 -34.83947 -56.02640 82 ft 19 kts 264°
2026-05-04 03:51 -34.84002 -56.02793 84 ft 17 kts 248°
2026-05-04 03:51 -34.84012 -56.02885 82 ft 0 kts 270°
2026-05-04 03:52 -34.84012 -56.02893 82 ft 2 kts 270°
2026-05-04 03:52 -34.84012 -56.02920 82 ft 4 kts 272°
2026-05-04 03:52 -34.84011 -56.02951 82 ft 0 kts 271°
2026-05-04 03:53 -34.84010 -56.02971 82 ft 6 kts 271°
2026-05-04 03:53 -34.84011 -56.03033 85 ft 9 kts 266°
2026-05-04 03:53 -34.84026 -56.03113 86 ft 11 kts 249°
2026-05-04 03:53 -34.84064 -56.03201 86 ft 13 kts 241°
2026-05-04 03:54 -34.84111 -56.03305 83 ft 15 kts 241°
2026-05-04 03:54 -34.84164 -56.03426 86 ft 17 kts 242°
2026-05-04 03:54 -34.84225 -56.03565 87 ft 18 kts 245°
2026-05-04 03:54 -34.84231 -56.03675 83 ft 14 kts 282°
2026-05-04 03:55 -34.84268 -56.03791 82 ft 16 kts 234°
2026-05-04 03:55 -34.84302 -56.03847 86 ft 17 kts 233°
2026-05-04 03:55 -34.84390 -56.03937 85 ft 12 kts 263°
2026-05-04 03:55 -34.84355 -56.03933 83 ft 0 kts 54°
2026-05-04 03:56 -34.84302 -56.03845 86 ft 42 kts 53°
2026-05-04 03:56 -34.83987 -56.03330 84 ft 106 kts 54°
2026-05-04 03:56 -34.83441 -56.02444 108 ft 151 kts 52°
2026-05-04 03:56 -34.82840 -56.01392 711 ft 151 kts 52°
2026-05-04 03:57 -34.82224 -56.00354 1361 ft 153 kts 45°
2026-05-04 03:57 -34.81557 -55.99255 1704 ft 175 kts 51°
2026-05-04 03:57 -34.81337 -55.97659 1965 ft 217 kts 97°
2026-05-04 03:57 -34.82188 -55.96008 2242 ft 250 kts 142°
2026-05-04 03:58 -34.85646 -55.95850 3327 ft 267 kts 218°
2026-05-04 03:58 -34.87065 -55.97285 4275 ft 264 kts 229°
2026-05-04 03:58 -34.88391 -55.98837 5263 ft 264 kts 228°
2026-05-04 03:59 -34.89718 -56.00395 6225 ft 265 kts 228°
2026-05-04 03:59 -34.91031 -56.01940 7102 ft 267 kts 227°
2026-05-04 03:59 -34.92192 -56.03684 7932 ft 265 kts 245°
2026-05-04 03:59 -34.92699 -56.05835 8750 ft 266 kts 265°
2026-05-04 04:00 -34.92868 -56.08090 9605 ft 268 kts 265°
2026-05-04 04:00 -34.93030 -56.10368 10359 ft 273 kts 265°
2026-05-04 04:00 -34.93197 -56.12770 10610 ft 296 kts 265°
2026-05-04 04:00 -34.93376 -56.15349 10956 ft 312 kts 265°
2026-05-04 04:01 -34.93562 -56.18007 11621 ft 316 kts 265°
2026-05-04 04:01 -34.93748 -56.20651 12349 ft 318 kts 265°
2026-05-04 04:01 -34.93938 -56.23374 13102 ft 319 kts 265°
2026-05-04 04:01 -34.94125 -56.26075 13835 ft 320 kts 265°
2026-05-04 04:02 -34.94313 -56.28786 14464 ft 322 kts 265°
2026-05-04 04:02 -34.94499 -56.31496 15005 ft 327 kts 265°
2026-05-04 04:02 -34.94688 -56.34267 15592 ft 330 kts 265°
2026-05-04 04:02 -34.94878 -56.37077 15970 ft 332 kts 265°
2026-05-04 04:03 -34.95069 -56.39887 16062 ft 336 kts 265°
2026-05-04 04:03 -34.95264 -56.42754 16076 ft 342 kts 265°
2026-05-04 04:03 -34.95462 -56.45647 16076 ft 343 kts 265°
2026-05-04 04:03 -34.95662 -56.48554 16076 ft 343 kts 265°
2026-05-04 04:04 -34.95857 -56.51452 16076 ft 343 kts 265°
2026-05-04 04:04 -34.96047 -56.54351 16070 ft 343 kts 265°
2026-05-04 04:04 -34.96237 -56.57258 16073 ft 343 kts 265°
2026-05-04 04:04 -34.96427 -56.60130 16072 ft 343 kts 265°
2026-05-04 04:05 -34.96621 -56.63027 16073 ft 343 kts 265°
2026-05-04 04:05 -34.96817 -56.65923 16074 ft 343 kts 265°
2026-05-04 04:05 -34.97007 -56.68827 16077 ft 343 kts 265°
2026-05-04 04:05 -34.97198 -56.71742 16080 ft 343 kts 265°
2026-05-04 04:06 -34.97389 -56.74642 16076 ft 343 kts 265°
2026-05-04 04:06 -34.97580 -56.77547 16083 ft 344 kts 265°
2026-05-04 04:06 -34.97770 -56.80454 16083 ft 344 kts 265°
2026-05-04 04:06 -34.97958 -56.83324 16083 ft 344 kts 265°
2026-05-04 04:07 -34.98146 -56.86232 16102 ft 344 kts 265°
2026-05-04 04:07 -34.98315 -56.89140 16102 ft 344 kts 266°
2026-05-04 04:07 -34.98377 -56.92056 16101 ft 344 kts 269°
2026-05-04 04:07 -34.98365 -56.94972 16097 ft 344 kts 270°
2026-05-04 04:08 -34.98321 -56.97895 16088 ft 344 kts 270°
2026-05-04 04:08 -34.98276 -57.00810 16090 ft 343 kts 270°
2026-05-04 04:08 -34.98240 -57.03721 16096 ft 343 kts 270°
2026-05-04 04:08 -34.98212 -57.06633 16092 ft 343 kts 270°
2026-05-04 04:09 -34.98192 -57.09539 16089 ft 343 kts 269°
2026-05-04 04:09 -34.98177 -57.12451 16068 ft 343 kts 269°
2026-05-04 04:09 -34.98169 -57.14379 16068 ft 343 kts 269°
2026-05-04 04:09 -34.98158 -57.17292 16064 ft 344 kts 269°
2026-05-04 04:10 -34.98148 -57.20211 16059 ft 344 kts 269°
2026-05-04 04:10 -34.98135 -57.23134 16061 ft 345 kts 269°
2026-05-04 04:10 -34.98120 -57.26058 16071 ft 345 kts 269°
2026-05-04 04:10 -34.98104 -57.28983 16068 ft 345 kts 269°
2026-05-04 04:11 -34.98088 -57.31920 16072 ft 345 kts 269°
2026-05-04 04:11 -34.98069 -57.34846 16073 ft 345 kts 269°
2026-05-04 04:11 -34.98049 -57.37771 16074 ft 345 kts 269°
2026-05-04 04:11 -34.98028 -57.40701 16073 ft 345 kts 269°
2026-05-04 04:12 -34.98006 -57.43629 16073 ft 345 kts 269°
2026-05-04 04:12 -34.97983 -57.46558 16073 ft 345 kts 270°
2026-05-04 04:12 -34.97959 -57.49446 16067 ft 345 kts 270°
2026-05-04 04:12 -34.97935 -57.52378 16070 ft 345 kts 269°
2026-05-04 04:13 -34.97912 -57.55308 16074 ft 345 kts 269°
2026-05-04 04:13 -34.97888 -57.58232 16075 ft 345 kts 269°
2026-05-04 04:13 -34.97863 -57.61159 16065 ft 341 kts 270°
2026-05-04 04:13 -34.97837 -57.64010 16052 ft 334 kts 270°
2026-05-04 04:14 -34.97811 -57.66822 15888 ft 328 kts 270°
2026-05-04 04:14 -34.97786 -57.69597 15366 ft 327 kts 270°
2026-05-04 04:14 -34.97761 -57.72367 14825 ft 326 kts 270°
2026-05-04 04:14 -34.97736 -57.75096 14292 ft 326 kts 270°
2026-05-04 04:15 -34.97707 -57.77864 13750 ft 326 kts 270°
2026-05-04 04:15 -34.97679 -57.80616 13212 ft 325 kts 270°
2026-05-04 04:15 -34.97651 -57.83365 12680 ft 323 kts 270°
2026-05-04 04:15 -34.97609 -57.86097 12224 ft 320 kts 274°
2026-05-04 04:16 -34.97132 -57.88740 11649 ft 322 kts 290°
2026-05-04 04:16 -34.95905 -57.91072 10901 ft 332 kts 312°
2026-05-04 04:16 -34.94129 -57.92885 10426 ft 335 kts 319°
2026-05-04 04:16 -34.92296 -57.94637 10191 ft 334 kts 319°
2026-05-04 04:17 -34.90481 -57.96361 10077 ft 335 kts 319°
2026-05-04 04:17 -34.88643 -57.98108 9583 ft 337 kts 319°
2026-05-04 04:17 -34.86813 -57.99850 9200 ft 329 kts 319°
2026-05-04 04:17 -34.85049 -58.01525 9063 ft 314 kts 319°
2026-05-04 04:18 -34.83372 -58.03114 8933 ft 295 kts 319°
2026-05-04 04:18 -34.81809 -58.04594 8636 ft 278 kts 319°
2026-05-04 04:18 -34.80787 -58.05565 8281 ft 273 kts 319°
2026-05-04 04:18 -34.80134 -58.06187 8028 ft 272 kts 319°
2026-05-04 04:19 -34.78656 -58.07597 7456 ft 268 kts 319°
2026-05-04 04:19 -34.77196 -58.08992 6909 ft 265 kts 319°
2026-05-04 04:19 -34.75751 -58.10370 6351 ft 262 kts 320°
2026-05-04 04:19 -34.74318 -58.11733 5929 ft 258 kts 320°
2026-05-04 04:20 -34.72943 -58.13039 5815 ft 250 kts 320°
2026-05-04 04:20 -34.71572 -58.14343 5493 ft 248 kts 320°
2026-05-04 04:20 -34.70334 -58.15705 5167 ft 237 kts 308°
2026-05-04 04:20 -34.69387 -58.17338 4582 ft 238 kts 304°
2026-05-04 04:21 -34.68461 -58.19012 3989 ft 238 kts 305°
2026-05-04 04:21 -34.67558 -58.20647 3714 ft 227 kts 305°
2026-05-04 04:21 -34.66708 -58.22186 3548 ft 211 kts 306°
2026-05-04 04:21 -34.65905 -58.23632 3426 ft 201 kts 307°
2026-05-04 04:22 -34.64920 -58.24740 3345 ft 189 kts 333°
2026-05-04 04:22 -34.63675 -58.25055 3320 ft 184 kts
2026-05-04 04:22 -34.62459 -58.24533 3314 ft 192 kts 30°
2026-05-04 04:22 -34.61615 -58.23223 3311 ft 208 kts 63°
2026-05-04 04:23 -34.61530 -58.21447 3311 ft 220 kts 102°
2026-05-04 04:23 -34.62267 -58.19790 3319 ft 227 kts 124°
2026-05-04 04:23 -34.63483 -58.18608 3304 ft 227 kts 164°
2026-05-04 04:23 -34.65006 -58.18552 3319 ft 217 kts 205°
2026-05-04 04:24 -34.66192 -58.19537 3315 ft 201 kts 241°
2026-05-04 04:24 -34.66685 -58.21035 3320 ft 186 kts 272°
2026-05-04 04:24 -34.66479 -58.22511 3311 ft 177 kts 300°
2026-05-04 04:24 -34.65847 -58.23792 3308 ft 177 kts 306°
2026-05-04 04:25 -34.65155 -58.25051 3087 ft 180 kts 307°
2026-05-04 04:25 -34.64449 -58.26303 2838 ft 180 kts 307°
2026-05-04 04:25 -34.63742 -58.27553 2590 ft 179 kts 307°
2026-05-04 04:25 -34.63043 -58.28800 2347 ft 178 kts 307°
2026-05-04 04:26 -34.62349 -58.30038 2108 ft 176 kts 308°
2026-05-04 04:26 -34.61675 -58.31248 1891 ft 169 kts 308°
2026-05-04 04:26 -34.61035 -58.32404 1654 ft 160 kts 308°
2026-05-04 04:26 -34.60445 -58.33468 1445 ft 145 kts 309°
2026-05-04 04:27 -34.59898 -58.34451 1259 ft 140 kts 309°
2026-05-04 04:27 -34.59357 -58.35417 1076 ft 137 kts 309°
2026-05-04 04:27 -34.58816 -58.36383 858 ft 141 kts 310°
2026-05-04 04:27 -34.58272 -58.37358 639 ft 138 kts 306°
2026-05-04 04:28 -34.57739 -58.38320 493 ft 136 kts 307°
2026-05-04 04:28 -34.57199 -58.39289 357 ft 142 kts 305°
2026-05-04 04:28 -34.56653 -58.40276 153 ft 138 kts 305°
2026-05-04 04:28 -34.56129 -58.41215 29 ft 125 kts 306°
2026-05-04 04:29 -34.55793 -58.41817 24 ft 44 kts 304°
2026-05-04 04:29 -34.55696 -58.41904 28 ft 13 kts 26°
2026-05-04 04:29 -34.55708 -58.41810 25 ft 14 kts 126°
2026-05-04 04:29 -34.55758 -58.41699 27 ft 16 kts 116°
2026-05-04 04:30 -34.55812 -58.41569 30 ft 18 kts 117°
2026-05-04 04:30 -34.55874 -58.41423 27 ft 21 kts 117°
2026-05-04 04:30 -34.55900 -58.41318 25 ft 11 kts 64°
2026-05-04 04:30 -34.55863 -58.41238 27 ft 13 kts 105°
2026-05-04 04:31 -34.55911 -58.41158 30 ft 8 kts 118°
2026-05-04 04:31 -34.55890 -58.41112 27 ft 4 kts 41°